Tracking 28790 objects as of 19-Apr-2024
HD Live streaming from Space Station
objects crossing your sky now

BEESAT-7

Track BEESAT-7 now!
10-day predictions
BEESAT-7 is classified as:


NORAD ID: 48084
Int'l Code: 2021-022AN
Perigee: 432.6 km
Apogee: 441.7 km
Inclination: 97.5 °
Period: 93.2 minutes
Semi major axis: 6808 km
RCS: Unknown
Launch date: March 22, 2021
Source: Germany (GER)
Launch site: TYURATAM MISSILE AND SPACE COMPLEX (TTMTR)

Uplink (MHz):
Downlink (MHz): 435.950
Beacon (MHz):
Mode: 4800bps GMSK
Call sign: DB0BEK
Status: Active

Your satellite tracking list
Your tracking list is empty




NASA's NSSDC Master Catalog

Two Line Element Set (TLE):
1 48084U 21022AN  24108.70171274  .00128535  00000-0  26433-2 0  9999
2 48084  97.4644  14.5596 0006619 337.8308  22.2653 15.45466561168372
Source of the keplerian elements: AFSPC